Santa Ana, CA

4:44 AM PDT on March 23, 2017 (GMT -0700)
John Wayne-Orange County

Weather History for KSNA - September, 2013

Change the Weather History Date:

Sunday, September 15, 2013

  Actual Average Record
Temperature  
Mean Temperature 80 °F 72 °F  
Max Temperature 91 °F 80 °F 102 °F (2012)
Min Temperature 69 °F 64 °F 59 °F (2007)
Degree Days  
Heating Degree Days 0 0  
Month to date heating degree days 0 0  
Since 1 July heating degree days 0 0  
Cooling Degree Days 15 7  
Month to date cooling degree days 219 113  
Year to date cooling degree days 923 684  
Growing Degree Days 29 (Base 50)    
Moisture  
Dew Point 62 °F    
Average Humidity 59    
Maximum Humidity 78    
Minimum Humidity 40    
Precipitation  
Precipitation 0.00 in 0.01 in 1.49 in (2015)
Month to date precipitation 0.00 0.08  
Year to date precipitation 2.09 9.11  
Since 1 July precipitation 0.12  
Snow  
Snow 0.00 in - - ()
Month to date snowfall 0.0  
Year to date snowfall 0.0  
Snow Depth 0.00 in    
Sea Level Pressure  
Sea Level Pressure 29.73 in    
Wind  
Wind Speed 4 mph (SW)    
Max Wind Speed 14 mph    
Max Gust Speed 17 mph    
Visibility 7 miles    
Events      
T = Trace of Precipitation, MM = Missing Value Source: NWS Daily Summary

Daily Weather History Graph

Daily Weather History Graph

Search for Another Location

Airport or City:

Trip Planner

Search our weather history database for the weather conditions in past years. The results will help you decide how hot, cold, wet, or windy it might be!

Date:

Astronomy

Sep. 15, 2013 Rise Set
Actual Time 6:35 AM PDT 6:57 PM PDT
Civil Twilight 6:10 AM PDT 7:22 PM PDT
Nautical Twilight 5:40 AM PDT 7:51 PM PDT
Astronomical Twilight 5:11 AM PDT 8:21 PM PDT
Moon 4:20 PM PDT (9/15) 2:27 AM PDT (9/15)
Length of Visible Light 13h 12m
Length of Day
12h 22m
Waxing Gibbous, 83% of the Moon is Illuminated
Sep 15
Waxing Gibbous
Sep 19
Full
Sep 26
Last Quarter
Oct 4
New
Oct 11
First Quarter

Hourly Weather History & Observations

Time (PDT) Temp. Heat Index Dew Point Humidity Pressure Visibility Wind Dir Wind Speed Gust Speed Precip Events Conditions
12:53 AM 73.0 °F - 62.1 °F 68% 29.70 in 8.0 mi Calm Calm - N/A   Clear
1:53 AM 73.0 °F - 62.1 °F 68% 29.70 in 8.0 mi Calm Calm - N/A   Clear
2:53 AM 73.0 °F - 62.1 °F 68% 29.70 in 8.0 mi Calm Calm - N/A   Clear
3:53 AM 72.0 °F - 61.0 °F 68% 29.71 in 8.0 mi SSW 3.5 mph - N/A   Clear
4:16 AM 71.6 °F - 60.8 °F 69% 29.71 in 6.0 mi SSW 4.6 mph - N/A   Haze
4:32 AM 71.6 °F - 62.6 °F 73% 29.71 in 3.0 mi SSW 3.5 mph - N/A   Haze
4:53 AM 71.1 °F - 62.1 °F 73% 29.71 in 4.0 mi SSW 3.5 mph - N/A   Haze
5:53 AM 70.0 °F - 63.0 °F 78% 29.72 in 3.0 mi Calm Calm - N/A   Mostly Cloudy
6:10 AM 69.8 °F - 60.8 °F 73% 29.73 in 4.0 mi Calm Calm - N/A   Mostly Cloudy
6:53 AM 69.1 °F - 61.0 °F 75% 29.73 in 3.0 mi Calm Calm - N/A   Mostly Cloudy
7:53 AM 71.1 °F - 62.1 °F 73% 29.75 in 3.0 mi Calm Calm - N/A   Haze
8:49 AM 73.4 °F - 62.6 °F 69% 29.75 in 4.0 mi Calm Calm - N/A   Haze
8:53 AM 73.9 °F - 62.1 °F 66% 29.75 in 4.0 mi Calm Calm - N/A   Haze
9:53 AM 78.1 °F - 63.0 °F 60% 29.76 in 6.0 mi South 3.5 mph - N/A   Haze
10:53 AM 82.0 °F 83.1 °F 63.0 °F 52% 29.76 in 7.0 mi NW 3.5 mph - N/A   Clear
11:53 AM 86.0 °F 86.8 °F 63.0 °F 46% 29.74 in 9.0 mi WNW 6.9 mph - N/A   Clear
12:53 PM 89.1 °F 90.0 °F 63.0 °F 42% 29.73 in 9.0 mi West 3.5 mph - N/A   Clear
1:53 PM 88.0 °F 87.9 °F 61.0 °F 40% 29.73 in 10.0 mi SW 12.7 mph - N/A   Clear
2:53 PM 86.0 °F 86.3 °F 62.1 °F 44% 29.71 in 9.0 mi SW 10.4 mph - N/A   Clear
3:53 PM 82.0 °F 83.0 °F 62.1 °F 51% 29.71 in 8.0 mi SW 10.4 mph - N/A   Clear
4:53 PM 80.1 °F 81.2 °F 62.1 °F 54% 29.70 in 10.0 mi SSW 9.2 mph - N/A   Clear
5:53 PM 80.1 °F 81.2 °F 62.1 °F 54% 29.71 in 10.0 mi SSW 8.1 mph - N/A   Clear
6:53 PM 77.0 °F - 62.1 °F 60% 29.71 in 10.0 mi SSW 5.8 mph - N/A   Clear
7:53 PM 75.9 °F - 61.0 °F 60% 29.73 in 9.0 mi SSW 4.6 mph - N/A   Clear
8:53 PM 75.9 °F - 60.1 °F 58% 29.75 in 8.0 mi SSW 5.8 mph - N/A   Clear
9:53 PM 75.0 °F - 60.1 °F 60% 29.76 in 9.0 mi SSW 3.5 mph - N/A   Clear
10:53 PM 73.9 °F - 61.0 °F 64% 29.76 in 9.0 mi SW 3.5 mph - N/A   Clear
11:53 PM 72.0 °F - 61.0 °F 68% 29.77 in 8.0 mi SSW 4.6 mph - N/A   Clear